Location: Lafig�re
(44.4503°N, 4.0357°E)
Time: 15:40:59
(UTC+00:00)

Vanguard 2 Rocket - Pass Details

Date: 03 February 2021
Orbit: 554 x 3325 km, 32.9° (Epoch: 06 March)

Event Time Altitude Azimuth Distance (km) Brightness Sun altitude
Rises 16:43:14 0° 274° (W) 6,710 12.6 1.3°
Reaches altitude 10° 16:48:53 10° 266° (W) 5,286 12.3 0.3°
Maximum altitude 17:00:27 31° 213° (SSW) 2,863 10.2 -1.6°
Drops below altitude 10° 17:07:54 10° 155° (SSE) 3,335 9.8 -2.8°
Sets 17:10:36 0° 144° (SE) 3,984 10.0 -3.3°
